Showing default

CORIOLIS, 27640

Orbit data source: Space-Track

CORIOLIS, 27640 is a payload satellite owned by USAF SMC (US) in SSO that was launched on Mon, 06 Jan 2003 UTC via a TITAN II SLV launch vehicle from the Air Force Western Test Range (AFWTR). Payload-class satellites include a variety of spacecraft equipped with specific instruments for various scientific and technological missions. These include communications satellites like Starlink; space stations such as the ISS; scientific satellites like the Hubble; Earth observation satellites from companies like Planet Labs, Umbra, and HawkEye 360; GPS; miniature CubeSats for education and research; and military/defense satellites.

Loading next visibility...
Identifier
27640, 2003-001A
Orbit
SSO
Country
Flag of USUS
Related business
Manufacturer
Spectrum Astro
Mission
Operational Civil Sci/Ast
Bus & Motor
SA-200HP, AOCS
Mass
827 kg wet, 745 kg dry
Launch date (UTC)
2003-01-06 (23 years ago)
Launch vehicle
TITAN II SLV
Launch site
Air Force Western Test Range (AFWTR)
Object type
Payload
Rocket body
Debris
Shape & HBR
Box + 1 Pan + 1 Dish, 5.0 m
Radar Cross Section
8.813 m², Large (>1 m²)

Expand to show TLE details & history
Last TLE update: 1 week ago

TLE from 1 week ago
0 CORIOLIS
1 27640U 03001A   26155.09066796  .00000099  00000-0  66958-4 0  9991
2 27640  98.7126 162.1754 0012865 249.0733 110.9067 14.19941104212362
Epoch: 2026-06-04T02:10Z
TLE epoch observation values (Epoch: 2026-06-04T02:10:33.711Z)
Latitude
-0.00001°
Longitude
-123.00498°
Altitude
831.784 km
Speed
7.435 km/s
True Right ascension
10h 48m 42s
True Declination
0° 00' 00"
Sunlit
Object was in daylight at epoch
Visualization orbit readout
Latitude
Unknown
Longitude
Unknown
Altitude
Unknown
Speed
Unknown
Apparent Right ascension
Unknown
Apparent Declination
Unknown
Sunlit
N/A
Visualization observer readout
Local Sidereal Time
12:32:13
Azimuth
Unknown
Elevation
Unknown
Doppler factor
Unknown
Orbital elements
Apogee altitude
831.975 km
Perigee altitude
813.447 km
Semi-major axis
7,200.848 km
Eccentricity
0.00129
Inclination
98.7126°
RAAN
162.1754°
Arg. of periapsis
249.0733°
True anomaly
111.04434°
Mean anomaly
110.9067°
Eccentric anomaly
110.97553°
Mean motion
3.55196 °/min
Orbital period
101.35 mins
BSTAR
0.000066958
Loading maneuver chart data...
Computing Atmospheric mass density...
Loading historical data...
Loading historical data...
Loading historical data...
Loading historical data...
Loading historical data...
Loading historical data...
Loading historical data...
Other satellites on launch #1 in the year 2003 (2003-01-06 UTC)

Documentation

Showing up to 5 results
|